Regional Weather Roundup
Issued by NWS Northern Indiana

Home | Current Version | Previous Version | Text Only | Print | Product List | Glossary On
Versions: 1 2 3 4 5 6 7 8 9 10 11 12 13 14 15 16 17 18 19 20 21 22 23 24 25 26 27 28 29 30 31 32 33 34 35 36 37 38 39 40 41 42 43 44 45 46 47 48 49 50
000
ASUS43 KIWX 300710
RWRIWX

KIWX WEATHER ROUNDUP
NATIONAL WEATHER SERVICE NORTHERN INDIANA
300 AM EDT SUN APR 30 2017

NOTE: "FAIR" INDICATES FEW OR NO CLOUDS BELOW 12,000 FEET WITH NO
SIGNIFICANT WEATHER AND/OR OBSTRUCTIONS TO VISIBILITY.

* THESE STATIONS ARE NOT UNDER NWS QUALITY CONTROL. THEY ALSO MAY NOT
  REPORT WEATHER SUCH AS PRECIPITATION OR FOG.

INZ001>027-300800-
NORTHERN INDIANA

CITY           SKY/WX    TMP DP  RH WIND       PRES   REMARKS
GARY*          LGT RAIN  47  45  91 NE3       29.94R
VALPARAISO     LGT RAIN  46  44  93 E17       29.92R
MICHIGAN CITY* LGT RAIN  45  43  93 E9G17     29.93R
LAPORTE*       DRIZZLE   45  42  90 E14       29.94S
KNOX*          CLOUDY    45  34  65 NE9       29.93R
SOUTH BEND     CLOUDY    43  40  89 E13G22    29.95F
GOSHEN         CLOUDY    45  39  79 E13G23    29.94F
MONTICELLO*    LGT RAIN  52  50  95 E3        29.89R
LOGANSPORT*    CLOUDY    48  46  93 E14G21    29.89F
ROCHESTER*     CLOUDY    50  48  93 E8G16     29.90S
WARSAW*        PTCLDY    45  41  87 E17G26    29.91F
ANGOLA*        MOCLDY    41  30  65 E16       29.98F
FORT WAYNE     CLOUDY    45  42  89 E21G29    29.96F
HUNTINGTON*    CLOUDY   N/A N/A N/A E13G23    29.94F
PERU/GRISSOM   CLOUDY    49  49 100 E15G24    29.89F
MARION*        CLOUDY    46  46 100 E15G24    29.92F

$$
INZ028>050-300800-
CENTRAL INDIANA

CITY           SKY/WX    TMP DP  RH WIND       PRES   REMARKS
LAFAYETTE      CLOUDY    57  57 100 CALM      29.87R
KOKOMO*        CLOUDY    49  47  93 E18       29.91S
MUNCIE*        CLOUDY    50  47  89 E14       29.93F
INDIANAPOLIS   CLOUDY    57  57 100 E9        29.89F

$$
MIZ043>046-050>051-056>058-064>065-071>073-077>080-300800-
SOUTHWEST LOWER MICHIGAN

CITY           SKY/WX    TMP DP  RH WIND       PRES   REMARKS
BATTLE CREEK   LGT RAIN  41  38  89 E16G22    30.00F
BENTON HARBOR  CLOUDY    46  37  71 E22G30    29.94F
COLDWATER*     CLOUDY    42  38  87 E15G22    29.99F
HILLSDALE*     CLOUDY    39  36  87 E16G26    30.01F
HOLLAND        LGT RAIN  42  38  85 E15G24    30.00F
GRAND RAPIDS   LGT RAIN  40  40 100 E22G29    30.03F
KALAMAZOO      CLOUDY    43  36  76 E10       30.01F
STURGIS*       MOCLDY    42  38  89 E16G28    29.95F
THREE RIVERS*  CLOUDY    43  37  80 E12G18    29.99S

$$
OHZ001>008-015>018-024>025-300800-
NORTHWEST OHIO

CITY           SKY/WX    TMP DP  RH WIND       PRES   REMARKS
WAUSEON*       CLOUDY    41  41 100 E17G24    30.03F
DEFIANCE       CLOUDY    42  40  92 E12       30.03F
FINDLAY        CLOUDY    46  42  86 N10       30.04F
TOLEDO EXPRESS CLOUDY    43  43 100 NE10      30.06F
TOLEDO METCALF LGT RAIN  46  44  93 NE9       30.10F FOG
LIMA           CLOUDY    45  45 100 NE12      30.00F

$$
AND FOR LAKE MICHIGAN COASTAL AND OPEN LAKE BUOY OBSERVATIONS

STATION/POSITION TEMP    WIND        PRES    VSBY  WAVE
                 AIR SEA DIR/SP/G                  HT/PER
                 (F)     (DEG/KT/KT) (MB)    (MI)  (FT/S)
CALUMET HARBOR            30/ 12/ 16 1013.6R
MICHIGAN CITY     45      80/ 13/ 16   N/A
BURNS HARBOR      46     100/  8/ 18 1013.9R
SOUTH LAKE BUOY   42 41   60/ 25/ 31 1016.0          6/ 6
4 MI NW BRIDGMAN  46 46  130/ 23/ 31 1013.5          5/ 6
MICHIGAN CITY     46 47                N/A           6/ 7

$$
&&



USA.gov is the U.S. government's official web portal to all federal, state and local government web resources and services.